Regional Weather Roundup
Issued by NWS State College, PA

Home | Current Version | Previous Version | Graphics & Text | Print | Product List | Glossary Off
Versions: 1 2 3 4 5 6 7 8 9 10 11 12 13 14 15 16 17 18 19 20 21 22 23 24 25 26 27 28 29 30 31 32 33 34 35 36 37 38 39 40 41 42 43 44 45 46 47 48 49 50

000
ASUS41 KCTP 250603
RWRCTP

REGIONAL WEATHER ROUNDUP
NATIONAL WEATHER SERVICE STATE COLLEGE PA
200 AM EDT SUN SEP 25 2016

Note: "fair" indicates few or no clouds below 12,000 feet with no
significant weather and/or obstructions to visibility.

* = STATION THAT DOES NOT REPORT PRECIPITATION /E.G. RAIN...SNOW...ETC/
    THUNDER OR FOG.

PAZ002>004-007>009-013>016-020>023-029>032-250700-
WESTERN PENNSYLVANIA

CITY           SKY/WX    TMP DP  RH WIND       PRES   REMARKS
ERIE           CLEAR     53  39  59 SE7       30.23R
MEADVILLE      CLEAR     50  41  71 E5        30.23S
FRANKLIN*        N/A     46  39  76 NE5       30.24R
NEW CASTLE     FAIR      49  47  93 CALM      30.22S
BEAVER COUNTY  NOT AVBL
BUTLER*        CLEAR     48  43  81 NE6       30.23R
PITTSBURGH INT CLEAR     56  49  77 CALM      30.18F
PITTSBURGH     CLEAR     56  45  66 N3        30.18S
INDIANA*       CLEAR     50  48  93 CALM      30.23R
LATROBE        CLEAR     50  50 100 N3        30.20R
WASHINGTON CO* CLEAR     52  46  82 CALM      30.19S
$$

PAZ004>006-010>012-017>019-024>028-033>037-041-042-045-046-049>053-250700-
CENTRAL PENNSYLVANIA

CITY           SKY/WX    TMP DP  RH WIND       PRES   REMARKS
BRADFORD       CLEAR     37  37 100 CALM      30.23S FOG
DUBOIS         CLEAR     48  42  80 NE7       30.21S
CLEARFIELD     CLEAR     46  44  93 N6        30.23R
JOHNSTOWN      CLEAR     51  47  86 E5        30.20S
ALTOONA        CLEAR     51  46  83 CALM      30.22R
STATE COLLEGE  CLEAR     49  45  85 NE5       30.23R
WILLIAMSPORT   CLEAR     49  45  86 NW3       30.21R
SELINSGROVE    CLEAR     47  46  97 NW5       30.22R
FT INDIANTOWN  CLEAR     49  45  86 CALM      30.20R
CAPITAL CITY   CLEAR     52  46  80 SW3       30.20R
HARRISBURG     CLEAR     55  47  74 N5        30.19R
YORK           CLEAR     45  45 100 CALM      30.19R
$$

PAZ038>040-043-044-047-048-054-055-060>062-067>071-250700-
EASTERN PENNSYLVANIA

CITY           SKY/WX    TMP DP  RH WIND       PRES   REMARKS
SCRANTON       CLEAR     46  43  89 E5        30.20S
MOUNT POCONO   CLEAR     42  37  82 N5        30.19S
ALLENTOWN      CLEAR     52  40  63 N7        30.19R
QUAKERTOWN*    CLEAR     46  45  93 CALM      30.19R
READING        CLEAR     52  43  71 NW3       30.18R
LANCASTER      CLEAR     54  46  74 CALM      30.18S
COATESVILLE    CLEAR     55  43  62 N7        30.19R
POTTSTOWN      CLEAR     54  43  66 N7        30.19R
BLUE BELL      CLEAR     50  45  81 CALM      30.17R
DOYLESTOWN     CLEAR     51  46  83 CALM      30.17R
WILLOW GROVE   NOT AVBL
NORTH PHILA    CLEAR     56  44  64 N8        30.18R
PHILADELPHIA   CLEAR     60  44  55 N12       30.17R
$$




USA.gov is the U.S. government's official web portal to all federal, state and local government web resources and services.